W1LH-13 Weather Reports


Display with metric or nautical units.
time (UTC)temp
F
wind
direction
speed
MPH
gust
MPH
rain 1hr
in
rain 24hr
in
rain mn
in
humidity
%
barometer
mb
20260504221838 58 303 7.0 11.0 0.00 0.05 0.00 67 1004.3
20260504221322 58 274 5.0 11.0 0.00 0.05 0.00 66 1004.2
20260504220826 58 310 7.0 12.0 0.00 0.05 0.00 66 1004.2
20260504220331 58 293 7.0 13.0 0.00 0.05 0.00 66 1004.1
20260504215820 58 281 8.0 15.0 0.00 0.07 0.00 65 1004.1
20260504215325 58 280 9.0 15.0 0.00 0.07 0.00 64 1003.9
20260504214851 58 281 8.0 14.0 0.00 0.07 0.00 64 1003.9
20260504214335 58 298 8.0 17.0 0.00 0.07 0.00 64 1003.8
20260504213838 59 260 10.0 17.0 0.00 0.07 0.00 64 1003.8
20260504213324 59 265 7.0 12.0 0.00 0.07 0.00 64 1003.8
20260504212849 59 281 7.0 12.0 0.00 0.07 0.00 63 1003.7
20260504212333 59 315 6.0 9.0 0.00 0.07 0.00 63 1003.6
20260504211836 59 271 6.0 10.0 0.00 0.07 0.00 63 1003.6
20260504211341 59 288 5.0 10.0 0.00 0.07 0.00 63 1003.5
20260504210823 59 292 7.0 9.0 0.00 0.07 0.00 63 1003.6
20260504210327 59 302 6.0 10.0 0.00 0.07 0.00 63 1003.6
20260504205835 58 290 3.0 8.0 0.00 0.09 0.00 64 1003.5
20260504205340 58 301 4.0 12.0 0.00 0.09 0.00 64 1003.5
20260504204843 58 254 7.0 16.0 0.00 0.09 0.00 63 1003.4
20260504204347 58 288 6.0 16.0 0.00 0.09 0.00 63 1003.5
20260504203827 58 253 5.0 11.0 0.00 0.09 0.00 64 1003.6
20260504203331 58 292 7.0 15.0 0.00 0.09 0.00 64 1003.5
20260504202836 58 282 8.0 15.0 0.00 0.09 0.00 64 1003.6
20260504202320 58 261 7.0 15.0 0.00 0.09 0.00 64 1003.6
20260504201824 58 304 8.0 16.0 0.00 0.09 0.00 64 1003.5
20260504201330 58 296 10.0 16.0 0.00 0.09 0.00 63 1003.5
20260504200834 58 271 10.0 16.0 0.00 0.09 0.00 64 1003.5
20260504200358 58 305 5.0 12.0 0.00 0.09 0.00 66 1003.6
20260504195822 58 271 6.0 12.0 0.00 0.12 0.00 66 1003.5
20260504195331 58 306 7.0 12.0 0.00 0.12 0.00 65 1003.4
20260504194835 58 276 6.0 14.0 0.00 0.12 0.00 66 1003.5
20260504194340 58 259 7.0 14.0 0.00 0.12 0.00 64 1003.4
20260504193823 59 284 3.0 11.0 0.00 0.12 0.00 66 1003.3
20260504193328 58 283 4.0 14.0 0.00 0.12 0.00 66 1003.4
20260504192833 57 271 7.0 15.0 0.00 0.12 0.00 68 1003.5
20260504192337 56 302 8.0 14.0 0.00 0.12 0.00 70 1003.6
20260504191821 56 281 9.0 16.0 0.00 0.12 0.00 70 1003.7
20260504191327 56 298 9.0 16.0 0.00 0.12 0.00 70 1003.7
20260504190832 56 300 10.0 16.0 0.00 0.12 0.00 72 1003.8
20260504190336 56 293 10.0 15.0 0.00 0.12 0.00 73 1003.8
20260504185824 55 269 9.0 16.0 0.00 0.18 0.00 74 1003.9
20260504185327 55 280 6.0 16.0 0.00 0.18 0.00 75 1003.9
20260504184852 54 259 7.0 12.0 0.00 0.18 0.00 75 1003.9
20260504184335 54 258 8.0 12.0 0.00 0.18 0.00 74 1003.9
20260504183820 54 262 6.0 15.0 0.00 0.18 0.00 73 1004.0
20260504183324 54 298 6.0 16.0 0.00 0.18 0.00 72 1004.0
20260504182830 55 259 10.0 16.0 0.00 0.18 0.00 70 1004.0
20260504182334 55 281 9.0 16.0 0.00 0.18 0.00 69 1003.9
20260504181838 56 307 10.0 18.0 0.00 0.18 0.00 66 1003.8
20260504181322 56 298 12.0 18.0 0.00 0.18 0.00 62 1003.6
20260504180827 57 263 7.0 17.0 0.00 0.18 0.00 58 1003.6
20260504180336 57 284 11.0 17.0 0.00 0.18 0.00 56 1003.3
20260504175820 58 289 7.0 20.0 0.00 0.30 0.00 56 1003.0
20260504175325 58 222 11.0 20.0 0.00 0.30 0.00 53 1002.9
20260504174829 59 301 9.0 18.0 0.00 0.30 0.00 51 1002.7
20260504174353 60 232 11.0 18.0 0.00 0.30 0.00 47 1002.6
20260504173838 60 236 5.0 17.0 0.00 0.30 0.00 47 1002.6
20260504173321 61 270 8.0 17.0 0.00 0.30 0.00 45 1002.5
20260504172846 61 257 8.0 17.0 0.00 0.30 0.00 44 1002.4
20260504172330 62 273 6.0 17.0 0.00 0.30 0.00 44 1002.4
20260504171834 63 283 7.0 18.0 0.00 0.30 0.00 40 1002.4
20260504171338 63 237 8.0 14.0 0.00 0.30 0.00 43 1002.5
20260504170823 62 275 5.0 14.0 0.00 0.30 0.00 44 1002.6
20260504170331 61 292 6.0 19.0 0.00 0.30 0.00 42 1002.6
20260504160326 61 286 6.0 17.0 0.00 0.36 0.00 49 1003.5
20260504150853 57 277 9.0 14.0 0.00 0.38 0.00 50 1004.3
20260504150336 57 226 6.0 15.0 0.00 0.38 0.00 51 1004.5
20260504141325 54 342 7.0 16.0 0.00 0.40 0.00 53 1005.0
20260504140834 54 230 8.0 15.0 0.00 0.40 0.00 54 1005.0
20260504140339 53 304 9.0 20.0 0.00 0.40 0.00 53 1005.0
20260504130338 50 269 10.0 16.0 0.00 0.45 0.00 59 1005.5
20260504110328 41 284 7.0 10.0 0.00 0.54 0.00 82 1004.8
20260504100324 37 259 6.0 10.0 0.00 0.57 0.00 88 1004.1
20260504081826 38 293 7.0 11.0 0.00 0.67 0.00 89 1002.9
20260504081330 38 293 6.0 8.0 0.00 0.67 0.00 89 1003.0
20260504080834 38 289 5.0 9.0 0.00 0.67 0.00 89 1002.8
20260504080339 38 286 5.0 9.0 0.00 0.67 0.00 89 1002.7
20260504070353 40 277 6.0 10.0 0.00 0.72 0.00 89 1002.3
20260504050323 43 301 6.0 13.0 0.00 0.73 0.00 91 1001.3
20260504045847 43 272 8.0 12.0 0.00 0.73 0.00 91 1001.2
20260504045331 43 286 8.0 13.0 0.00 0.73 0.00 91 1001.1
20260504044835 43 286 7.0 13.0 0.00 0.73 0.00 91 1001.1
20260504044400 43 298 9.0 17.0 0.00 0.73 0.00 91 1001.0
20260504043823 43 279 8.0 15.0 0.00 0.73 0.00 92 1001.1
20260504043328 43 294 9.0 15.0 0.00 0.73 0.00 92 1001.0
20260504042852 43 264 8.0 15.0 0.00 0.73 0.00 92 1001.0
20260504042336 43 242 8.0 13.0 0.00 0.73 0.00 92 1000.9
20260504041840 43 280 8.0 13.0 0.00 0.73 0.00 92 1000.8
20260504041324 43 284 8.0 13.0 0.00 0.73 0.00 92 1000.8
20260504040847 43 289 8.0 14.0 0.00 0.73 0.00 92 1000.7
20260504040335 43 254 9.0 14.0 0.00 0.73 0.00 92 1000.6
20260504035859 43 296 9.0 18.0 0.00 0.73 0.73 92 1000.7
20260504035323 43 306 11.0 18.0 0.00 0.73 0.73 92 1000.6
20260504034827 43 271 9.0 14.0 0.00 0.73 0.73 92 1000.5
20260504034332 43 282 8.0 16.0 0.00 0.73 0.73 92 1000.5
20260504033835 43 264 9.0 16.0 0.00 0.73 0.73 92 1000.5
20260504033320 43 296 7.0 15.0 0.00 0.73 0.73 92 1000.4
20260504032846 43 302 8.0 14.0 0.00 0.73 0.73 92 1000.4
20260504032328 43 279 9.0 13.0 0.00 0.73 0.73 92 1000.3
20260504031833 43 284 8.0 12.0 0.00 0.73 0.73 92 1000.2
20260504031358 43 284 7.0 13.0 0.00 0.73 0.73 92 1000.2
20260504030822 43 275 8.0 13.0 0.01 0.73 0.73 92 1000.2
20260504030327 43 289 8.0 15.0 0.01 0.73 0.73 92 1000.1
20260504025836 43 298 7.0 15.0 0.01 0.73 0.73 92 1000.1
20260504025339 43 297 7.0 14.0 0.01 0.73 0.73 92 1000.0
20260504024825 43 298 9.0 14.0 0.01 0.73 0.73 92 999.9
20260504024328 43 265 8.0 13.0 0.01 0.73 0.73 92 999.9
20260504023833 43 245 8.0 13.0 0.01 0.73 0.73 92 999.8
20260504023336 43 288 6.0 16.0 0.01 0.73 0.73 92 999.8
20260504022900 43 298 7.0 16.0 0.01 0.73 0.73 92 999.8
20260504022323 43 304 8.0 15.0 0.02 0.73 0.73 92 999.8
20260504021847 43 300 9.0 15.0 0.02 0.73 0.73 92 999.8
20260504021329 43 281 8.0 14.0 0.02 0.73 0.73 92 999.9
20260504020834 43 313 7.0 14.0 0.01 0.72 0.72 92 999.9
20260504020338 43 278 8.0 14.0 0.01 0.72 0.72 92 999.9
20260504015827 43 272 8.0 14.0 0.01 0.72 0.72 92 999.9
20260504015352 43 306 7.0 17.0 0.01 0.72 0.72 92 999.9
20260504014855 43 287 7.0 17.0 0.01 0.72 0.72 92 999.9
20260504014338 43 279 7.0 13.0 0.01 0.72 0.72 92 999.8
20260504013824 43 105 7.0 17.0 0.01 0.72 0.72 93 999.7
20260504013347 43 291 9.0 12.0 0.01 0.72 0.72 93 999.6
20260504012831 43 284 8.0 14.0 0.02 0.72 0.72 93 999.7
20260504012337 43 281 9.0 14.0 0.01 0.71 0.71 93 999.7
20260504011820 43 277 7.0 15.0 0.01 0.71 0.71 93 999.6
20260504011325 43 331 8.0 15.0 0.01 0.71 0.71 93 999.6
20260504010829 43 299 9.0 15.0 0.01 0.71 0.71 93 999.4
20260504010334 43 278 7.0 15.0 0.01 0.71 0.71 93 999.4
20260504005857 43 294 7.0 15.0 0.01 0.71 0.71 93 999.4
20260504005321 43 274 9.0 14.0 0.01 0.71 0.71 92 999.3
20260504004828 43 256 7.0 14.0 0.01 0.71 0.71 92 999.2
20260504004334 43 276 7.0 14.0 0.01 0.71 0.71 92 999.1
20260504003839 43 251 6.0 15.0 0.01 0.71 0.71 92 999.0
20260504003323 43 286 8.0 14.0 0.02 0.71 0.71 92 999.0
20260504002826 43 275 9.0 15.0 0.01 0.70 0.70 92 998.9
20260504002352 43 300 8.0 15.0 0.01 0.70 0.70 92 998.8
20260504001836 43 266 7.0 13.0 0.01 0.70 0.70 92 998.8
20260504001320 43 265 8.0 15.0 0.01 0.70 0.70 92 998.8
20260504000845 43 295 7.0 16.0 0.01 0.70 0.70 92 998.8
20260504000329 43 286 9.0 16.0 0.01 0.70 0.70 92 998.7
20260503235834 43 248 8.0 16.0 0.01 0.70 0.70 92 998.7
20260503235338 43 291 9.0 14.0 0.01 0.70 0.70 92 998.6
20260503234843 43 272 9.0 17.0 0.01 0.70 0.70 92 998.5
20260503234330 43 271 8.0 17.0 0.01 0.70 0.70 92 998.4
20260503233835 43 292 7.0 16.0 0.01 0.70 0.70 92 998.3
20260503233340 43 275 9.0 16.0 0.00 0.69 0.69 92 998.3
20260503232824 43 260 8.0 13.0 0.00 0.69 0.69 92 998.3
20260503232328 43 279 7.0 14.0 0.00 0.69 0.69 92 998.3
20260503231833 43 284 8.0 14.0 0.00 0.69 0.69 92 998.2
20260503231337 44 279 8.0 13.0 0.01 0.69 0.69 92 998.2
20260503230821 44 273 4.0 13.0 0.01 0.69 0.69 92 998.2
20260503230325 44 315 4.0 12.0 0.01 0.69 0.69 92 998.2
20260503225849 44 265 5.0 15.0 0.01 0.69 0.69 92 998.2
20260503225333 44 291 5.0 10.0 0.01 0.69 0.69 91 998.2
20260503224822 44 278 4.0 10.0 0.01 0.69 0.69 92 998.2
20260503224325 44 335 4.0 11.0 0.01 0.69 0.69 91 998.3
20260503223829 44 235 6.0 13.0 0.02 0.69 0.69 92 998.2
20260503223333 44 310 7.0 13.0 0.02 0.69 0.69 91 998.2
20260503222838 44 5 5.0 13.0 0.02 0.69 0.69 91 998.2